Weather History for KJKL - September, 2013

Change the Weather History Date:

Thursday, September 12, 2013

  Actual Average Record
Temperature  
Mean Temperature 76 °F 70 °F  
Max Temperature 86 °F 79 °F 91 °F (1999)
Min Temperature 65 °F 60 °F 50 °F (1992)
Degree Days  
Heating Degree Days 0 1  
Month to date heating degree days 0 4  
Since 1 July heating degree days 2 6  
Cooling Degree Days 11 5  
Month to date cooling degree days 108 80  
Year to date cooling degree days 1003 1058  
Growing Degree Days 25 (Base 50)    
Moisture  
Dew Point 67 °F    
Average Humidity 83    
Maximum Humidity 100    
Minimum Humidity 65    
Precipitation  
Precipitation 0.16 in 0.12 in 1.18 in (1986)
Month to date precipitation 0.43 1.32  
Year to date precipitation 43.65 34.87  
Snow  
Snow 0.00 in 0.00 in - ()
Month to date snowfall 0.0 0.0  
Since 1 July snowfall 0.0 0.0  
Since 1 September snowfall 0.0 0.0  
Snow Depth 0.00 in    
Sea Level Pressure  
Sea Level Pressure 30.03 in    
Wind  
Wind Speed 1 mph (West)    
Max Wind Speed 12 mph    
Max Gust Speed 24 mph    
Visibility 3 miles    
Events Fog , Rain , Thunderstorm    
T = Trace of Precipitation, MM = Missing Value Source: NWS Daily Summary

Daily Weather History Graph

Daily Weather History Graph

Search for Another Location

Airport or City:

Trip Planner

Search our weather history database for the weather conditions in past years. The results will help you decide how hot, cold, wet, or windy it might be!

Date:

Astronomy

Sep. 12, 2013 Rise Set
Actual Time 7:12 AM EDT 7:45 PM EDT
Civil Twilight 6:46 AM EDT 8:11 PM EDT
Nautical Twilight 6:15 AM EDT 8:42 PM EDT
Astronomical Twilight 5:43 AM EDT 9:14 PM EDT
Moon 2:31 PM EDT (9/12) No Moon Set
Length of Visible Light 13h 25m
Length of Day
12h 32m
Waxing Crescent, 50% of the Moon is Illuminated
Sep 12
Waxing Crescent
Sep 12
First Quarter
Sep 19
Full
Sep 26
Last Quarter
Oct 4
New

Hourly Weather History & Observations

Time (EDT) Temp. Heat Index Dew Point Humidity Pressure Visibility Wind Dir Wind Speed Gust Speed Precip Events Conditions
12:04 AM 69.8 °F - 68.0 °F 94% 30.12 in 0.5 mi Variable 3.5 mph - N/A Fog Fog
12:11 AM 69.8 °F - 68.0 °F 94% 30.12 in 1.8 mi Calm Calm - N/A   Mostly Cloudy
12:18 AM 69.8 °F - 68.0 °F 94% 30.12 in 2.5 mi Calm Calm - N/A   Mostly Cloudy
12:21 AM 69.8 °F - 68.0 °F 94% 30.12 in 3.0 mi Calm Calm - N/A   Scattered Clouds
12:53 AM 70.0 °F - 68.0 °F 93% 30.07 in 4.0 mi Calm Calm - N/A   Clear
1:01 AM 69.8 °F - 68.0 °F 94% 30.10 in 3.0 mi Calm Calm - N/A   Scattered Clouds
1:27 AM 69.8 °F - 66.2 °F 88% 30.10 in 3.0 mi Variable 3.5 mph - N/A   Mostly Cloudy
1:36 AM 69.8 °F - 66.2 °F 88% 30.10 in 4.0 mi Calm Calm - N/A   Scattered Clouds
1:48 AM 69.8 °F - 66.2 °F 88% 30.10 in 2.0 mi Calm Calm - N/A   Scattered Clouds
1:53 AM 69.1 °F - 66.9 °F 93% 30.06 in 2.0 mi Calm Calm - N/A   Partly Cloudy
2:07 AM 69.8 °F - 66.2 °F 88% 30.10 in 4.0 mi Calm Calm - N/A   Partly Cloudy
2:14 AM 69.8 °F - 66.2 °F 88% 30.10 in 1.8 mi Variable 3.5 mph - N/A   Partly Cloudy
2:21 AM 69.8 °F - 66.2 °F 88% 30.10 in 1.5 mi Calm Calm - N/A   Scattered Clouds
2:24 AM 69.8 °F - 66.2 °F 88% 30.10 in 2.0 mi Calm Calm - N/A   Scattered Clouds
2:38 AM 69.8 °F - 66.2 °F 88% 30.10 in 4.0 mi Calm Calm - N/A   Partly Cloudy
2:53 AM 69.1 °F - 66.9 °F 93% 30.05 in 4.0 mi Calm Calm - N/A   Clear
3:11 AM 69.8 °F - 66.2 °F 88% 30.10 in 3.0 mi Variable 3.5 mph - N/A   Partly Cloudy
3:22 AM 69.8 °F - 66.2 °F 88% 30.10 in 2.0 mi Calm Calm - N/A   Scattered Clouds
3:40 AM 69.8 °F - 66.2 °F 88% 30.09 in 3.0 mi Calm Calm - N/A   Scattered Clouds
3:42 AM 69.8 °F - 66.2 °F 88% 30.09 in 1.5 mi Calm Calm - N/A   Scattered Clouds
3:49 AM 69.8 °F - 66.2 °F 88% 30.09 in 1.0 mi Variable 3.5 mph - N/A   Mist
3:53 AM 69.1 °F - 66.9 °F 93% 30.05 in 1.2 mi Calm Calm - N/A   Mostly Cloudy
4:10 AM 69.8 °F - 66.2 °F 88% 30.09 in 2.0 mi Calm Calm - N/A   Mostly Cloudy
4:24 AM 68.0 °F - 66.2 °F 94% 30.09 in 1.2 mi Calm Calm - N/A   Mostly Cloudy
4:28 AM 68.0 °F - 66.2 °F 94% 30.09 in 1.8 mi Calm Calm - N/A   Mostly Cloudy
4:33 AM 68.0 °F - 66.2 °F 94% 30.09 in 3.0 mi Calm Calm - N/A   Scattered Clouds
4:53 AM 69.1 °F - 66.9 °F 93% 30.04 in 4.0 mi Calm Calm - N/A   Partly Cloudy
5:09 AM 68.0 °F - 66.2 °F 94% 30.08 in 2.5 mi Calm Calm - N/A   Partly Cloudy
5:19 AM 68.0 °F - 66.2 °F 94% 30.08 in 3.0 mi Calm Calm - N/A   Partly Cloudy
5:53 AM 68.0 °F - 66.0 °F 93% 30.04 in 5.0 mi Calm Calm - N/A   Scattered Clouds
6:45 AM 68.0 °F - 66.2 °F 94% 30.08 in 2.5 mi Calm Calm - N/A   Partly Cloudy
6:48 AM 68.0 °F - 66.2 °F 94% 30.08 in 1.0 mi Calm Calm - N/A   Mist
6:53 AM 68.0 °F - 66.0 °F 93% 30.04 in 0.5 mi Calm Calm - N/A Fog Fog
7:16 AM 66.2 °F - 66.2 °F 100% 30.08 in 1.5 mi Calm Calm - N/A   Mostly Cloudy
7:20 AM 66.2 °F - 66.2 °F 100% 30.08 in 2.0 mi Calm Calm - N/A   Mostly Cloudy
7:35 AM 68.0 °F - 66.2 °F 94% 30.09 in 1.8 mi Calm Calm - N/A   Scattered Clouds
7:43 AM 68.0 °F - 66.2 °F 94% 30.09 in 3.0 mi Calm Calm - N/A   Partly Cloudy
7:53 AM 68.0 °F - 66.0 °F 93% 30.06 in 3.0 mi Calm Calm - N/A   Partly Cloudy
8:19 AM 68.0 °F - 66.2 °F 94% 30.09 in 2.5 mi Calm Calm - N/A   Clear
8:26 AM 68.0 °F - 66.2 °F 94% 30.09 in 2.5 mi Calm Calm - N/A   Partly Cloudy
8:50 AM 69.8 °F - 68.0 °F 94% 30.09 in 3.0 mi Calm Calm - N/A   Partly Cloudy
8:53 AM 69.1 °F - 66.9 °F 93% 30.05 in 3.0 mi Calm Calm - N/A   Clear
9:08 AM 69.8 °F - 68.0 °F 94% 30.08 in 4.0 mi Calm Calm - N/A   Partly Cloudy
9:53 AM 72.0 °F - 69.1 °F 91% 30.04 in 5.0 mi Calm Calm - N/A   Partly Cloudy
10:53 AM 77.0 °F - 70.0 °F 79% 30.03 in 8.0 mi Calm Calm - N/A   Partly Cloudy
11:53 AM 81.0 °F 84.9 °F 71.1 °F 72% 30.03 in 10.0 mi Calm Calm - N/A   Partly Cloudy
12:53 PM 82.0 °F 86.3 °F 71.1 °F 69% 30.00 in 10.0 mi West 4.6 mph - N/A   Partly Cloudy
1:53 PM 84.0 °F 89.0 °F 71.1 °F 65% 29.97 in 9.0 mi Variable 4.6 mph - N/A   Partly Cloudy
2:53 PM 84.9 °F 90.1 °F 71.1 °F 63% 29.92 in 9.0 mi Calm Calm - N/A   Partly Cloudy
3:39 PM 80.6 °F 83.9 °F 69.8 °F 70% 29.93 in 7.0 mi Calm Calm - N/A Thunderstorm Overcast
3:53 PM 79.0 °F - 70.0 °F 74% 29.89 in 7.0 mi Calm Calm - N/A Thunderstorm Thunderstorm
3:59 PM 75.2 °F - 69.8 °F 83% 29.95 in 0.8 mi West 9.2 mph 20.7 mph 0.00 in Rain , Thunderstorm Heavy Thunderstorms and Rain
4:09 PM 71.6 °F - 66.2 °F 83% 29.95 in 1.0 mi Variable 3.5 mph - 0.16 in Rain , Thunderstorm Light Thunderstorms and Rain
4:11 PM 71.6 °F - 68.0 °F 88% 29.95 in 4.0 mi Calm Calm - 0.16 in Rain , Thunderstorm Light Thunderstorms and Rain
4:28 PM 73.4 °F - 68.0 °F 83% 29.96 in 7.0 mi West 3.5 mph - 0.16 in Thunderstorm Thunderstorm
4:38 PM 73.4 °F - 69.8 °F 88% 29.95 in 6.0 mi Calm Calm - 0.16 in Thunderstorm Partly Cloudy
4:48 PM 73.4 °F - 69.8 °F 88% 29.95 in 6.0 mi Calm Calm - 0.16 in   Scattered Clouds
4:53 PM 73.0 °F - 70.0 °F 90% 29.91 in 6.0 mi Calm Calm - 0.16 in   Mostly Cloudy
5:44 PM 71.6 °F - 68.0 °F 88% 29.95 in 5.0 mi Variable 6.9 mph - 0.00 in Rain Light Rain
5:53 PM 71.1 °F - 68.0 °F 90% 29.91 in 5.0 mi Variable 3.5 mph - 0.00 in   Mostly Cloudy
6:53 PM 70.0 °F - 68.0 °F 93% 29.92 in 5.0 mi Calm Calm - N/A   Mostly Cloudy
7:53 PM 69.1 °F - 66.9 °F 93% 29.89 in 2.5 mi Calm Calm - N/A   Partly Cloudy
8:10 PM 69.8 °F - 66.2 °F 88% 29.93 in 5.0 mi Calm Calm - N/A   Clear
8:32 PM 68.0 °F - 66.2 °F 94% 29.94 in 2.5 mi Calm Calm - N/A   Partly Cloudy
8:36 PM 68.0 °F - 66.2 °F 94% 29.94 in 1.5 mi Calm Calm - N/A   Scattered Clouds
8:44 PM 68.0 °F - 66.2 °F 94% 29.94 in 0.8 mi Calm Calm - N/A   Mist
8:53 PM 68.0 °F - 66.0 °F 93% 29.91 in 1.0 mi Calm Calm - N/A   Mist
9:19 PM 68.0 °F - 66.2 °F 94% 29.96 in 0.2 mi Calm Calm - N/A Fog Fog
9:53 PM 66.9 °F - 66.0 °F 97% 29.93 in 0.2 mi Calm Calm - N/A Fog Fog
10:53 PM 66.9 °F - 64.9 °F 93% 29.91 in 0.2 mi Calm Calm - N/A Fog Fog
11:53 PM 66.0 °F - 64.9 °F 96% 29.90 in 0.2 mi Calm Calm - N/A Fog Fog